www.pogodaiklimat.ru

Погода и климат >> Архив погоды >> Россия >> Хабаровский край >> Георгиевка


ПОГОДА в Георгиевке

  • Прогноз погоды в Георгиевке
  • Монитор погоды в Георгиевке
  • Климат города

АРХИВ ПОГОДЫ в Георгиевке

Время (UTC), дата Ветер
(напр.,м/с)
 
Видим.   Явления Облачность Т
(С)
Тd
(С)
f
(%)
Тe
(С)
Тes
(С)
Комфортность P
(гПа)
Po
(гПа)
Тmin
(С)
Tmax
(С)
R
(мм)
R24
(мм)
S
(см)
21 18.04 СВ 2 20 км 4 балла +3.3 -4.4 57 +1 +1 1000.6 992.0 +2.7
00 19.04 СВ 5 20 км 9 баллов +6.6 -5.7 41 +3 +4 1001.8 993.3
03 19.04 СВ 6 20 км 9 баллов +8.7 -6.3 34 +6 +6 1001.7 993.3
06 19.04 СВ 5
{13}
20 км 9/4 600 м
[Sc Ac As]
+8.7 -2.5 45 +6 +7 1002.4 994.0
09 19.04 С 3 20 км 9 баллов +7.9 -4.5 41 +6 +6 1005.8 997.3 +9.9
12 19.04 С 4 10 км 4 балла +4.1 -2.1 64 0 0 1008.6 1000.0
15 19.04 С 3 10 км ясно +2.2 -1.6 76 -2 -2 1009.5 1000.8
18 19.04 С 2 10 км 3/0
[Ci fib]
+0.3 -3.8 74 -3 -3 1010.4 1001.6
21 19.04 С 3 20 км 2 балла +0.5 -4.9 67 -4 -3 1012.8 1004.0 +0.2
00 20.04 С 3 20 км 8/0
[Ac As]
+3.9 -4.2 55 +1 +4 1012.1 1003.4
03 20.04 С 3 20 км 8/8 600 м
[Cb cap]
+7.0 -3.8 46 +5 +7 1010.8 1002.2
06 20.04 С 3 20 км 10/10 600 м
[Cb cap]
+7.2 -4.9 42 +5 +5 1009.9 1001.3
09 20.04 С 2 20 км 10 баллов +6.4 -3.8 48 +5 +5 1011.3 1002.7 +7.6
12 20.04 С 2 10 км 10/10 600 м
[Cb cap]
+4.6 -4.6 51 +3 +3 1011.1 1002.4
15 20.04 С 1 10 км 4/4 600 м
[Sc]
+0.7 -5.4 64 -1 -1 1011.0 1002.2
18 20.04 СЗ 1 10 км ясно +0.4 -6.1 62 -1 -1 1010.9 1002.1
21 20.04 СЗ 1 20 км 2 балла +0.5 -5.3 65 -1 -0 1012.8 1004.0 -0.8
00 21.04 С 3 20 км 3/0
[Ac lent Ci fib]
+5.7 -5.3 45 +3 +9 1011.3 1002.7
03 21.04 С 3 20 км 8/8 600 м
[Cu med, cong Ci fib]
+8.4 -10.2 26 +7 +9 1009.9 1001.4
06 21.04 СВ 3 20 км 9/9 600 м
[Cb cap]
+8.5 -7.8 31 +7 +7 1009.2 1000.7
09 21.04 СВ 3 20 км 10 баллов +7.0 -5.7 40 +5 +5 1011.3 1002.7 +9.1
12 21.04 СЗ 1 10 км 3/0
[Ac lent]
+1.0 -5.7 61 -0 -0 1011.1 1002.3
15 21.04 штиль 0 10 км 6/0
[Ac trans]
-1.4 -4.6 79 -2 -2 1011.6 1002.8
18 21.04 СВ 1 10 км 6/0
[Ac lent]
+1.9 -5.7 57 +1 +1 1011.6 1002.9
21 21.04 В 1 20 км 7 баллов +0.4 -3.9 73 -1 -1 1012.8 1004.0 -1.9
00 22.04 СВ 2 20 км 8/8 600 м
[Sc]
+7.0 -4.2 45 +5 +7 1012.6 1004.0
03 22.04 СВ 3 20 км 8/8 600 м
[Cb cap]
+9.3 -4.1 39 +8 +10 1012.0 1003.5
06 22.04 СВ 2 20 км 9/9 600 м
[Cb cap]
+9.2 -3.9 39 +8 +9 1011.9 1003.4
09 22.04 СВ 2 20 км 7 баллов +8.3 -2.6 46 +7 +7 1013.9 1005.3 +10.4
12 22.04 С 1 10 км ясно +2.3 -3.2 67 +1 +1 1014.4 1005.6
15 22.04 С 1 10 км ясно +1.5 -3.7 68 0 0 1014.6 1005.8
18 22.04 СВ 2 10 км ясно -0.3 -3.4 80 -4 -4 1014.4 1005.6
21 22.04 СВ 2 20 км 4 балла -0.8 -3.2 84 -5 -4 1016.9 1008.0 -1.7
00 23.04 СВ 3 20 км 3/0
[Ci fib]
+7.0 -1.3 55 +5 +12 1014.3 1005.7
03 23.04 В 2 20 км 8/0
[Ci]
+12.2 -4.5 31 +12 +25 опасность
простуды
1012.6 1004.2
06 23.04 В 4 20 км 8/3 600 м
[Sc diur, vesp Ci]
+15.4 -3.6 27 +15 +18 1010.4 1002.1
09 23.04 В 2 20 км 10 баллов +14.3 -2.6 31 +14 +14 1011.1 1002.7 +15.6
12 23.04 С 3 10 км 3/3 600 м
[Sc]
+8.9 -0.8 51 +7 +7 1012.2 1003.7
15 23.04 СВ 1 10 км 10/10 600 м
[Cb cap]
+5.1 -0.4 68 +4 +4 1012.7 1004.1
18 23.04 ЮВ 1 10 км 9/6 600 м
[Sc Ac As]
+7.5 -1.1 54 +7 +7 1013.0 1004.4
21 23.04 Ю 3 20 км в посл. час ливневой дождь 10/10 600 м
[Cb cap]
+6.6 +0.4 65 +4 +4 1014.0 1005.4 +4.7 0.6
00 24.04 Ю 4 20 км в посл. час ливневой дождь 6 баллов +7.2 +3.8 79 +4 +6 1016.6 1008.0
03 24.04 Ю 4
{10}
20 км 8/8 600 м
[Cb cap]
+12.6 +1.9 48 +11 +13 1016.1 1007.7
06 24.04 ЮЗ 3 20 км 5/5 600 м
[Cu med, cong]
+15.8 -5.6 22 +16 +19 1015.7 1007.3
09 24.04 СВ 1 20 км 10 баллов +13.6 -2.0 34 +14 +14 1016.4 1008.0 +16.5
12 24.04 СВ 2 10 км 10/10 600 м
[Cb cap]
+10.8 -4.1 35 +10 +10 1014.8 1006.3
15 24.04 СВ 3 10 км 10/10 600 м
[Cb cap]
+7.0 +1.9 70 +4 +4 1013.0 1004.4
18 24.04 В 1 4000 м слабый ливневой дождь 10/8 600 м
[Cb cap As op]
+6.9 +5.8 93 +6 +6 1012.7 1004.2
21 24.04 В 2 4000 м слабый ливневой дождь 10/10 600 м
[Cb cap]
+6.9 +5.4 90 +5 +5 1010.9 1002.3 +6.4 3
00 25.04 ЮВ 1 4000 м слабый дождь 10 баллов +7.5 +6.4 93 +6 +6 1011.2 1002.7
03 25.04 Ю 2 4000 м слабый дождь 10/8 600 м
[Sc As op]
+7.2 +5.7 90 +5 +6 1010.7 1002.1
06 25.04 ЮВ 2 20 км {дождь} 10/10 600 м
[Cb cap]
+8.8 +5.6 80 +7 +7 1009.6 1001.1
09 25.04 ЮЗ 3 4000 м ливневой дождь, в посл. час гроза 10 баллов +6.1 +3.4 83 +3 +3 1011.3 1002.7 +9.1 8
12 25.04 ЮВ 1 4000 м дымка 2 балла +2.7 +2.0 95 +1 +1 1011.4 1002.7
15 25.04 штиль 0 4000 м дымка ясно +1.1 +0.5 96 -0 -0 1009.8 1001.1
18 25.04 СВ 1 10 км ясно +0.6 +0.1 96 -2 -2 1008.7 999.9

 

Местоположение метеостанции Георгиевка (Хабаровский край, Россия): широта 47.95 долгота 135.20 высота над уровнем моря 70 м.

В архиве по умолчанию представлена погода в Георгиевке за последнюю неделю. Архивные данные за месяц целиком и за предыдущие месяцы, начиная с января 2011 года, Вы можете получить, выбрав интересующий диапазон дат из раскрывающегося списка и нажав кнопку "Ввод!".

Внимание! Время в таблицах - всемирное. Для получения местного времени необходимо прибавить поправку, которая в Георгиевке равна 10 ч.

Смотрите также архив погоды в соседних городах и на ближайших метеорологических станциях:

Погода в Бичевой (Хабаровский край, Россия) (36 км)
Погода в Вяземском (Хабаровский край, Россия) (61 км)
Погода в Хабаровске Агромет (Хабаровский край, Россия) (64 км)
Погода в Хабаровске (Хабаровский край, Россия) (64 км)
Погода в Гвасюгах (Хабаровский край, Россия) (74 км)
Погода в Елабуге (Хабаровский край, Россия) (106 км)
Погода в Лермонтовке (Хабаровский край, Россия) (112 км)
Погода в Смидовиче (Еврейская автономная область, Россия) (126 км)
Погода в Литовко (Хабаровский край, Россия) (143 км)
Погода в Бикине (Хабаровский край, Россия) (148 км)

Пояснения к столбцам:

Ветер - указаны скорость ветра в м/с - средняя за 10 мин, порывы в срок и между сроками (в фигурных скобках) и направление, откуда дует ветер: С - северный, СВ - северо-восточный, В - восточный, ЮВ - юго-восточный, Ю - южный, ЮЗ - юго-западный, З - западный, СЗ - северо-западный.
Видимость - горизонтальная дальность видимости в метрах или километрах. При видимости от 1 до 10 км при отсутствии осадков обычно наблюдается дымка, при ухудшении видимости до 1 км и менее - туман. В сухую погоду видимость может ухудшаться дымом, пылью или мглою.
Явления - указаны атмосферные явления, наблюдавшиеся в срок или в последний час перед сроком; фигурными скобками обозначены явления, наблюдавшиеся между сроками (за 1-3 часа до срока); квадратными скобками обозначены град или гололедные отложения с указанием их диаметра в мм.
Облачность - указаны через наклонную черту общая и нижняя облачность в баллах и высота нижней границы облаков в метрах; квадратными скобками обозначены формы облаков: Ci - перистые, Cs - перисто-слоистые, Cc - перисто-кучевые, Ac - высококучевые, As - высокослоистые, Sc - слоисто-кучевые, Ns - слоисто-дождевые, Cu - кучевые, Cb - кучево-дождевые. Подробнее классификацию облаков см. в Атласе облаков (PDF).
T - Температура воздуха - температура, измеренная на высоте 2 м над землей.
Td - Температура точки росы - температура, при понижении до которой содержащийся в воздухе водяной пар достигнет насыщения.
f - Относительная влажность воздуха - влажноcть воздуха, измеренная на высоте 2 м над землей.
Te - Эффективная температура - температура, которую ощущает одетый по сезону человек в тени. Характеристика душности погоды. При расчете учитывается влияние влажности воздуха и скорости ветра на теплоощущения человека.
Tes - Эффективная температура на солнце - температура, которую ощущает человек, с поправкой на солнечный нагрев. Характеристика знойности погоды. Зависит от высоты солнца над горизонтом, облачности и скорости ветра. Ночью, в пасмурную погоду, а также при ветре 12 м/с и более поправка равна нулю.
P - Атмосферное давление - приведенное к уровню моря атмосферное давление.
Po - Атмосферное давление - измеренное на уровне метеостанции атмосферное давление.
Tmin - Минимальная температура - минимум температуры воздуха на высоте 2 м над землей.
Tmax - Максимальная температура - максимум температуры воздуха на высоте 2 м над землей.
R - Количество осадков - Количество выпавших осадков за период времени, мм. При наведении курсора мыши на число - период времени, за который выпало указанное количество осадков.
R24 - Количество осадков - Количество выпавших осадков за 24 часа, мм.
S - Снежный покров - Высота снежного покрова, см. При наведении курсора мыши на число - состояние снежного покрова и степень покрытия местности в баллах.